User: anonymous   Login
Location: D�derode
(51.8092°N, 10.1065°E)
Time: 04:17:45
(UTC+00:00)
Language:

Meteor 1-20 Rocket - Orbit

View from above orbital plane
View from above orbital plane
View from above satellite
View from above satellite

Ground track
Ground track

The orbit data is extracted from the following two-line orbital elements,

1 07575U 74099B   21059.41845187  .00000119  00000-0  58145-4 0  9996
2 07575  81.2430  75.3452 0050953  38.2535 322.2233 14.11084796377081
Epoch (UTC): 28 February 2021 10:02:34
Eccentricity: 0.0050953
inclination: 81.2430°
perigee height: 819 km
apogee height: 892 km
right ascension of ascending node: 75.3452°
argument of perigee: 38.2535°
revolutions per day: 14.11084796
mean anomaly at epoch: 322.2233°
orbit number at epoch: 37708

The dashed part of the orbit path shows where the satellite is in the earth's shadow,  

DLR